EHI
3 3 3 2 2 1 0 0 1 2 2 2 1 0 1 2 4 5 6 9 13 16 17 16 12 10 9 9 8 7 7 7 7 5 3 1 0 1 2 1 0 0 0
3 3 3 3 2 2 1 0 0 1 1 1 0 0 0 1 3 4 5 8 13 16 17 15 12 10 10 10 9 7 7 7 7 6 5 3 1 1 2 1 0 0 0
4 3 3 2 1 1 1 0 0 0 0 0 0 0 0 1 2 2 3 6 10 13 15 14 12 11 10 11 10 8 6 6 6 6 6 5 3 3 2 1 0 0 0
4 3 1 1 0 0 0 0 0 0 0 0 0 0 0 0 1 1 1 3 5 7 10 13 13 14 14 12 10 8 6 5 6 6 6 6 4 3 3 1 0 0 0
3 1 0 0 0 0 0 0 0 0 0 0 0 0 0 0 0 0 0 1 2 3 5 8 11 13 15 15 13 11 8 6 5 5 6 6 5 4 3 2 1 0 0
2 1 0 1 2 1 1 0 0 0 0 0 0 0 0 0 0 0 0 0 1 2 2 3 4 7 11 14 14 13 11 8 6 6 5 5 4 4 4 3 1 0 0
1 0 1 2 3 3 2 1 1 0 0 0 0 0 0 0 0 0 0 0 0 1 1 0 0 1 4 8 10 11 10 8 7 6 5 4 5 5 4 3 1 0 0
1 1 1 3 3 3 3 3 2 1 0 0 1 1 1 0 0 1 1 1 0 0 1 1 0 1 2 4 5 7 8 8 8 8 7 6 5 5 4 4 2 1 1
3 2 2 3 4 4 4 4 3 1 0 0 1 2 2 1 1 2 2 2 1 1 2 2 1 2 2 3 4 6 8 10 11 10 8 7 6 6 5 5 3 2 2
5 4 4 4 5 5 5 5 3 1 0 0 1 2 2 1 1 2 2 2 2 2 2 2 2 1 1 3 4 6 9 10 11 9 8 7 8 8 8 7 5 3 3
6 7 7 6 4 4 4 5 4 2 1 0 0 1 1 1 1 1 1 1 2 2 1 1 1 0 1 2 3 4 7 7 7 6 6 7 9 10 10 9 8 5 4
6 9 10 7 4 4 4 4 4 2 1 1 1 0 0 0 0 0 0 0 1 1 0 0 0 0 0 1 1 2 3 3 3 4 4 5 7 8 8 8 8 6 5
6 9 9 8 5 4 4 4 3 2 1 1 1 0 0 0 0 0 0 0 0 0 0 0 0 0 0 0 0 0 1 1 1 2 3 4 5 5 5 5 6 6 5
8 9 9 7 6 5 4 4 3 3 2 1 1 0 0 0 0 0 0 0 0 0 0 0 0 0 0 0 0 0 0 0 0 1 2 3 3 3 3 3 4 4 4
10 9 8 7 6 5 4 3 3 3 3 2 1 0 0 0 0 0 0 0 0 0 0 0 0 0 0 0 0 0 0 0 0 0 1 1 1 2 2 2 2 2 2
9 9 8 7 6 5 4 3 3 3 3 2 1 0 0 1 0 0 0 0 0 0 0 0 0 0 0 0 0 0 0 0 0 0 0 0 0 1 1 0 1 1 1
8 9 9 7 6 4 3 3 3 3 3 1 0 0 0 0 0 0 0 0 0 0 0 0 0 0 0 0 0 0 0 0 0 0 0 0 0 0 0 0 0 0 0
8 9 9 8 6 4 3 3 3 3 2 1 0 0 0 0 0 0 0 0 0 0 0 0 0 0 0 0 0 0 0 0 0 0 0 0 0 0 0 0 0 0 0
11 10 10 9 7 5 4 3 3 3 3 1 0 0 0 0 0 0 0 0 0 0 0 0 0 0 0 0 0 0 0 0 0 0 0 0 0 0 0 0 0 0 0
13 11 10 9 8 6 4 3 3 3 3 2 1 0 0 0 0 0 0 0 0 0 0 0 0 0 0 0 0 0 0 0 0 0 0 0 0 0 0 0 0 0 0
12 12 11 10 8 7 6 4 4 4 4 3 2 1 0 0 0 0 0 0 0 0 0 0 0 0 0 0 0 0 0 0 0 0 0 0 0 0 0 0 0 0 0
10 10 10 9 9 8 6 4 4 5 5 4 3 1 0 0 0 0 0 0 0 0 0 0 0 0 0 0 0 0 0 0 0 0 0 0 0 0 0 0 0 0 0
9 9 9 8 8 6 3 2 2 4 6 6 5 3 1 1 0 0 0 0 0 0 0 0 0 0 0 0 0 0 0 0 0 0 0 0 0 0 0 0 0 0 0
10 9 8 7 6 4 1 0 0 2 5 6 6 5 3 2 1 0 0 0 0 0 0 0 0 0 0 0 0 0 0 0 0 0 0 0 0 0 0 0 0 0 0
10 9 8 7 5 3 1 0 0 1 3 4 5 5 4 2 1 0 0 0 0 0 0 0 0 0 0 0 0 0 0 0 0 0 0 0 0 0 0 0 0 0 0
9 9 9 8 6 3 1 0 0 0 1 3 4 4 3 1 0 0 0 0 0 0 0 0 0 0 0 0 0 0 0 0 0 0 0 0 0 0 0 0 0 0 0
Wind_Speed
2 1 1 1 1 1 1 1 1 1 1 1 2 2 3 3 3 3 3 8 9 9 10 10 10 9 9 9 9 9 10 10 9 9 10 10 10 9 9 8 9 9 9
2 2 2 1 1 1 1 2 2 1 1 1 1 2 2 2 3 3 3 5 8 9 9 10 10 9 10 10 9 9 9 9 9 8 9 9 9 9 10 9 9 9 9
3 2 2 1 1 1 1 1 1 1 1 1 1 1 1 2 3 4 3 3 4 7 9 9 9 9 9 9 9 9 9 9 9 8 8 8 8 9 9 9 9 9 8
3 2 2 1 1 1 1 2 1 1 1 1 1 1 1 1 2 3 3 3 3 3 6 9 8 8 9 9 8 8 8 8 8 8 8 8 8 8 9 9 9 9 8
3 3 2 1 1 1 1 1 1 2 1 1 1 1 1 1 1 2 3 3 4 3 3 6 8 8 9 8 8 8 8 7 7 8 8 9 9 9 9 9 9 9 9
3 3 2 1 1 1 1 1 1 1 1 1 1 0 0 1 0 1 2 2 3 3 3 3 3 4 7 7 7 7 8 7 7 7 8 9 9 9 8 9 9 9 9
2 2 2 2 2 1 1 1 1 2 1 1 2 1 2 1 0 1 1 1 2 2 3 3 2 2 2 5 6 6 8 8 8 8 8 8 7 7 8 8 8 8 8
2 3 2 2 2 1 1 2 2 1 0 1 2 2 1 3 2 1 0 1 2 2 2 3 3 3 2 1 2 5 7 7 8 8 8 7 7 7 7 8 8 9 9
2 2 3 2 2 2 2 2 2 3 2 0 1 3 2 1 1 2 1 0 1 1 1 2 3 3 3 2 2 3 5 6 8 8 7 6 6 6 7 7 8 8 8
2 2 2 2 2 2 2 2 2 2 3 1 0 0 2 3 2 0 2 1 0 1 1 2 2 2 3 2 2 3 4 4 5 6 6 5 5 5 5 7 7 7 8
1 2 2 2 2 2 2 1 2 2 2 2 1 0 0 1 1 2 1 1 1 1 1 1 2 2 2 2 2 3 5 4 3 3 4 4 4 4 4 5 5 6 6
0 1 2 2 2 2 2 2 2 2 2 2 1 1 1 1 1 2 2 1 1 1 1 1 1 2 2 2 3 5 6 5 4 3 3 3 3 3 3 4 4 4 5
1 1 2 2 2 2 2 2 2 1 1 2 1 1 1 1 1 2 2 1 1 1 0 0 1 2 2 2 2 4 5 5 4 3 3 2 2 3 3 3 4 4 4
2 2 2 2 2 2 2 2 2 1 1 1 2 2 1 1 1 2 3 3 1 0 1 1 1 1 1 2 2 4 3 5 4 4 3 2 2 2 2 2 3 3 3
2 2 2 2 2 2 2 2 1 1 1 1 1 1 1 1 1 1 2 3 4 2 1 2 1 2 2 1 3 2 2 4 5 5 4 3 2 2 2 2 2 2 2
2 2 2 2 2 2 2 2 1 1 1 1 1 1 1 1 1 1 1 1 2 3 2 2 2 2 2 2 3 2 2 4 4 4 4 4 3 3 3 3 3 2 2
3 3 3 3 2 2 2 2 1 1 1 0 0 1 0 1 1 1 1 1 1 2 2 2 1 1 1 1 1 1 2 2 3 5 5 5 4 4 3 3 3 3 3
3 3 3 3 3 2 2 2 2 1 1 1 1 1 0 0 0 0 1 1 1 2 3 2 1 1 1 2 2 2 2 3 2 5 6 6 5 5 4 4 4 4 4
3 2 2 3 2 2 2 2 2 2 2 2 2 2 2 1 0 0 1 1 1 1 2 2 1 1 1 1 0 1 1 1 3 4 5 6 6 6 5 5 5 5 4
3 3 3 3 3 3 3 3 3 3 2 2 2 3 3 3 3 2 2 2 1 1 1 2 1 1 1 1 0 0 1 1 2 2 3 4 5 6 6 6 6 5 5
3 3 3 3 2 3 3 3 3 3 3 2 2 2 3 4 4 4 2 2 2 2 2 2 1 1 1 1 1 2 2 1 2 2 1 2 2 2 3 5 6 6 5
2 2 2 3 3 3 4 5 4 3 3 3 3 3 3 3 3 4 4 4 5 5 4 3 2 3 3 3 2 2 1 1 2 2 1 2 1 2 3 3 6 7 7
2 2 2 2 3 4 5 5 5 3 3 3 4 3 3 3 3 3 3 3 3 5 7 5 5 5 5 4 3 3 3 3 4 3 2 2 2 2 3 3 6 7 7
3 3 3 3 3 3 4 5 5 3 3 3 4 4 4 3 3 3 3 2 3 3 5 5 5 6 6 5 5 5 4 3 2 2 2 2 2 2 3 2 5 6 6
2 2 2 2 3 3 4 5 4 2 3 4 3 3 4 4 5 4 3 3 3 3 4 5 6 6 6 6 4 2 1 1 2 3 2 2 2 2 2 2 3 5 6
2 2 2 2 3 3 3 4 4 2 3 3 2 2 4 4 5 5 4 4 4 4 2 2 3 3 4 4 5 5 4 3 2 3 3 2 2 1 1 2 2 2 2
Wind_Direction
150 145 144 141 136 123 128 139 157 161 161 154 158 157 162 170 174 182 186 184 185 189 189 190 194 194 194 197 200 199 197 198 200 202 206 207 206 207 210 208 205 204 206
154 156 151 140 147 157 152 153 169 159 161 150 150 163 170 183 180 179 189 194 193 193 195 197 198 196 196 199 200 201 200 202 205 205 207 210 210 210 214 214 213 210 210
158 156 138 132 168 157 150 140 124 106 131 140 156 191 181 186 179 173 183 186 198 201 198 198 197 198 198 199 200 201 202 205 205 206 204 204 206 207 211 211 213 211 210
152 144 135 154 167 140 145 147 135 123 115 139 189 234 212 180 190 178 179 186 195 201 199 194 192 193 197 200 201 201 204 205 205 205 204 207 208 207 206 209 212 212 213
152 145 152 173 147 130 142 156 135 141 142 152 200 209 210 195 192 180 175 183 190 191 189 192 191 194 198 201 204 206 208 211 214 212 210 212 213 212 210 211 214 215 217
144 141 141 146 131 117 106 131 146 146 156 173 180 165 238 196 193 187 194 180 178 179 180 187 189 196 195 196 200 204 209 215 218 218 216 216 217 216 213 213 216 218 221
139 138 137 133 130 134 155 157 142 127 116 105 86 24 350 346 313 214 194 164 160 161 148 162 171 179 195 201 206 212 216 220 221 218 215 215 216 215 213 214 216 218 222
147 142 136 141 145 139 118 121 129 124 133 102 126 110 13 353 341 352 61 147 157 148 159 169 159 165 177 177 199 211 221 226 222 214 211 212 215 216 213 215 219 225 227
153 150 147 145 146 148 151 151 147 145 157 214 122 138 142 218 305 340 12 153 156 148 165 160 167 171 175 170 193 213 218 226 215 212 211 212 214 216 217 221 226 231 231
157 147 143 147 146 134 142 162 151 147 146 165 295 168 158 160 150 312 337 341 145 159 178 179 174 173 179 182 193 188 195 201 193 198 204 206 209 213 220 227 234 237 236
154 138 136 138 143 137 139 124 113 123 133 146 159 175 94 80 115 142 229 303 339 293 204 185 164 171 184 191 196 190 186 187 188 187 188 194 199 206 219 228 236 244 243
164 135 128 131 139 131 124 135 120 125 147 143 145 127 135 156 182 158 185 229 247 280 277 195 172 178 183 192 196 185 177 169 169 173 176 189 198 208 223 239 246 253 254
168 188 150 146 151 154 143 140 133 135 153 152 155 182 182 197 174 163 153 189 222 278 337 298 221 191 182 177 191 180 177 169 171 177 180 190 203 218 229 245 253 261 263
189 181 164 158 158 156 145 135 137 157 138 163 185 192 197 216 186 174 168 161 152 334 329 263 278 216 198 182 192 186 185 175 178 183 183 188 204 218 226 235 247 259 266
170 158 158 150 146 143 134 134 133 180 164 162 195 213 211 233 201 197 178 165 161 175 241 260 256 243 219 196 200 191 189 187 184 189 191 195 204 212 217 218 220 230 252
168 157 156 154 152 146 139 135 148 198 143 197 200 203 231 230 189 174 169 174 161 162 193 242 235 228 212 209 199 190 194 185 188 194 199 203 210 216 224 226 217 225 241
174 169 168 161 166 170 161 151 166 153 133 104 79 117 276 238 184 203 164 150 151 148 174 259 268 250 186 212 211 208 205 202 214 210 211 213 219 221 225 231 227 229 241
186 176 165 164 178 180 170 169 188 170 162 170 189 126 203 123 262 206 169 174 179 168 164 205 266 279 238 220 205 207 211 210 218 217 216 217 224 228 228 230 233 237 243
186 182 163 167 182 188 185 187 186 183 187 202 204 193 212 168 203 251 211 205 206 180 156 165 221 240 250 244 198 260 240 248 235 226 222 227 230 232 233 234 236 240 241
182 184 184 188 190 191 190 192 189 190 201 215 215 209 210 200 203 202 211 214 197 167 145 153 189 226 242 262 129 236 281 267 248 242 243 233 233 232 236 236 237 238 236
187 191 190 199 202 201 203 194 195 200 207 223 237 231 222 214 210 206 201 202 189 177 173 179 199 200 228 209 227 231 234 262 263 239 251 249 230 238 243 243 241 239 230
187 179 190 200 216 226 210 204 197 203 210 216 233 245 242 224 223 218 213 203 194 191 192 190 203 211 224 220 221 215 209 193 270 253 189 258 206 230 240 233 238 230 225
184 189 201 200 219 228 217 211 206 203 211 221 224 230 237 224 220 222 227 233 235 225 204 189 199 215 213 214 201 211 213 208 229 231 175 247 242 240 244 244 236 228 227
191 202 212 215 220 230 216 212 208 205 221 232 228 222 219 229 228 206 213 235 251 250 226 210 209 219 215 209 197 201 211 225 261 250 170 218 240 238 249 248 245 226 223
202 215 216 215 215 235 216 205 196 198 230 248 247 229 211 217 224 201 198 225 254 272 262 231 222 226 226 218 192 157 167 169 259 260 212 188 225 240 256 260 260 231 223
207 219 228 225 219 229 228 213 197 194 224 244 259 250 221 214 221 205 197 206 232 252 258 276 261 256 247 241 215 192 191 195 220 251 230 183 205 173 275 271 257 246 230